{"data":{"norad_id":62102,"epoch":"2026-09-21T11:09:49.145760Z","epoch_age_seconds":98846,"freshness":"FRESH","line1":"1 62102U 24220Q   26264.46515215  .00008468  00000+0  31683-3 0  9999","line2":"2 62102  42.9986 179.8044 0000531 338.8039  21.2790 15.27586430102967","mean_motion":15.2758643,"eccentricity":5.31e-5,"inclination_deg":42.9986,"raan_deg":179.8044,"arg_perigee_deg":338.8039,"mean_anomaly_deg":21.279,"bstar":0.00031683,"rev_number":10296,"period_min":94.266351920919,"perigee_km":482.66551441468,"apogee_km":483.39417033334,"semimajor_km":6861.166842374,"source":"CELESTRAK","updated_at":"2026-09-22T09:00:49.499007Z"}}